Weather History for Canon City Fremont County, CO

Change the Weather History Date:

Friday, January 3, 2014

  Actual Average (KPUB) Record (KPUB)
Temperature  
Mean Temperature 48 °F 30 °F  
Max Temperature 64 °F 46 °F 71 °F (1997)
Min Temperature 33 °F 14 °F -22 °F (1959)
Degree Days  
Heating Degree Days 16 35  
Month to date heating degree days 105  
Since 1 July heating degree days 2468  
Cooling Degree Days 0 0  
Month to date cooling degree days 0  
Year to date cooling degree days 0  
Moisture  
Dew Point 14 °F    
Average Humidity 27    
Maximum Humidity 52    
Minimum Humidity 12    
Precipitation  
Precipitation 0.00 in 0.01 in 0.12 in (1910)
Month to date precipitation 0.03  
Year to date precipitation 0.03  
Snow  
Snow 0.00 in 0.20 in 1.90 in (1972)
Month to date snowfall 0.6  
Since 1 July snowfall 12.1  
Snow Depth -    
Sea Level Pressure  
Sea Level Pressure 29.80 in    
Wind  
Wind Speed 16 mph (West)    
Max Wind Speed 28 mph    
Max Gust Speed 34 mph    
Visibility 10 miles    
Events      
T = Trace of Precipitation, MM = Missing Value Source: NWS Daily Summary

Daily Weather History Graph

Daily Weather History Graph

Search for Another Location

Airport:

Trip Planner

Search our weather history database for the weather conditions in past years. The results will help you decide how hot, cold, wet, or windy it might be!

Date:

Astronomy

Jan. 03, 2014 Rise Set
Actual Time 7:17 AM MST 4:52 PM MST
Civil Twilight 6:48 AM MST 5:21 PM MST
Nautical Twilight 6:15 AM MST 5:54 PM MST
Astronomical Twilight 5:43 AM MST 6:27 PM MST
Moon 8:48 AM MST (1/3) 8:01 PM MST (1/3)
Length of Visible Light 10h 33m
Length of Day
9h 34m
Waxing Crescent, 8% of the Moon is Illuminated
Jan 3
Waxing Crescent
Jan 7
First Quarter
Jan 15
Full
Jan 23
Last Quarter
Jan 30
New

Hourly Weather History & Observations

Time (MST) Temp. Windchill Dew Point Humidity Pressure Visibility Wind Dir Wind Speed Gust Speed Precip Events Conditions
12:15 AM 33.8 °F 26.4 °F 17.6 °F 52% 30.04 in 10.0 mi NW 9.2 mph - N/A   Clear
12:35 AM 35.6 °F 28.0 °F 19.4 °F 52% 30.03 in 10.0 mi WNW 10.4 mph - N/A   Clear
12:55 AM 39.2 °F 31.2 °F 17.6 °F 42% 30.02 in 10.0 mi NW 13.8 mph 18.4 mph N/A   Clear
1:15 AM 42.8 °F 34.8 °F 17.6 °F 36% 30.01 in 10.0 mi WNW 17.3 mph 23.0 mph N/A   Clear
1:35 AM 39.2 °F 29.8 °F 19.4 °F 45% 30.02 in 10.0 mi NW 18.4 mph - N/A   Clear
1:55 AM 37.4 °F 28.5 °F 19.4 °F 48% 30.01 in 10.0 mi WNW 15.0 mph - N/A   Clear
2:15 AM 41.0 °F 32.5 °F 19.4 °F 42% 30.01 in 10.0 mi WNW 17.3 mph - N/A   Clear
2:35 AM 42.8 °F 34.5 °F 19.4 °F 39% 29.99 in 10.0 mi WNW 18.4 mph - N/A   Clear
2:55 AM 39.2 °F 30.5 °F 19.4 °F 45% 29.99 in 10.0 mi WNW 16.1 mph - N/A   Clear
3:15 AM 39.2 °F 31.2 °F 19.4 °F 45% 29.98 in 10.0 mi WNW 13.8 mph - N/A   Clear
3:35 AM 39.2 °F 30.8 °F 19.4 °F 45% 29.97 in 10.0 mi West 15.0 mph 19.6 mph N/A   Clear
3:55 AM 41.0 °F 31.4 °F 19.4 °F 42% 29.95 in 10.0 mi West 21.9 mph - N/A   Clear
4:15 AM 42.8 °F 33.5 °F 19.4 °F 39% 29.95 in 10.0 mi WNW 23.0 mph - N/A   Clear
4:35 AM 41.0 °F 32.5 °F 19.4 °F 42% 29.95 in 10.0 mi West 17.3 mph - N/A   Clear
4:55 AM 41.0 °F 33.5 °F 17.6 °F 39% 29.95 in 10.0 mi West 13.8 mph - N/A   Clear
5:15 AM 41.0 °F 32.8 °F 19.4 °F 42% 29.94 in 10.0 mi West 16.1 mph - N/A   Clear
5:35 AM 39.2 °F 31.6 °F 19.4 °F 45% 29.93 in 10.0 mi West 12.7 mph - N/A   Clear
5:55 AM 39.2 °F 32.0 °F 19.4 °F 45% 29.93 in 10.0 mi WNW 11.5 mph - N/A   Clear
6:15 AM 39.2 °F 33.0 °F 19.4 °F 45% 29.92 in 10.0 mi WNW 9.2 mph - N/A   Clear
6:25 AM 37.4 °F 29.8 °F 19.4 °F 48% 29.91 in 10.0 mi WNW 11.5 mph - N/A   Clear
9:15 AM 51.8 °F - 17.6 °F 26% 29.88 in 10.0 mi West 17.3 mph - N/A   Clear
9:35 AM 53.6 °F - 17.6 °F 24% 29.88 in 10.0 mi West 15.0 mph 20.7 mph N/A   Clear
9:55 AM 55.4 °F - 14.0 °F 20% 29.87 in 10.0 mi WNW 21.9 mph - N/A   Clear
10:15 AM 55.4 °F - 12.2 °F 18% 29.86 in 10.0 mi West 21.9 mph 28.8 mph N/A   Clear
10:35 AM 59.0 °F - 12.2 °F 16% 29.85 in 10.0 mi West 23.0 mph 29.9 mph N/A   Clear
10:55 AM 59.0 °F - 14.0 °F 17% 29.83 in 10.0 mi West 23.0 mph 27.6 mph N/A   Clear
11:15 AM 60.8 °F - 12.2 °F 15% 29.80 in 10.0 mi West 27.6 mph 34.5 mph N/A   Clear
11:35 AM 60.8 °F - 12.2 °F 15% 29.78 in 10.0 mi West 19.6 mph 27.6 mph N/A   Clear
11:55 AM 62.6 °F - 12.2 °F 14% 29.76 in 10.0 mi West 23.0 mph 28.8 mph N/A   Clear
12:15 PM 62.6 °F - 12.2 °F 14% 29.75 in 10.0 mi West 21.9 mph 33.4 mph N/A   Clear
12:35 PM 62.6 °F - 12.2 °F 14% 29.73 in 10.0 mi West 21.9 mph 29.9 mph N/A   Clear
12:55 PM 62.6 °F - 12.2 °F 14% 29.72 in 10.0 mi West 21.9 mph 32.2 mph N/A   Clear
1:15 PM 64.4 °F - 12.2 °F 13% 29.70 in 10.0 mi West 24.2 mph 31.1 mph N/A   Clear
1:35 PM 64.4 °F - 12.2 °F 13% 29.70 in 10.0 mi West 21.9 mph - N/A   Clear
1:55 PM 64.4 °F - 12.2 °F 13% 29.69 in 10.0 mi West 23.0 mph 33.4 mph N/A   Clear
2:15 PM 64.4 °F - 12.2 °F 13% 29.68 in 10.0 mi West 24.2 mph 33.4 mph N/A   Clear
2:35 PM 62.6 °F - 10.4 °F 13% 29.68 in 10.0 mi WSW 19.6 mph 27.6 mph N/A   Clear
2:55 PM 62.6 °F - 10.4 °F 13% 29.68 in 10.0 mi WSW 19.6 mph 25.3 mph N/A   Clear
3:15 PM 62.6 °F - 8.6 °F 12% 29.68 in 10.0 mi West 23.0 mph 31.1 mph N/A   Clear
3:35 PM 62.6 °F - 10.4 °F 13% 29.69 in 10.0 mi West 15.0 mph 27.6 mph N/A   Clear
3:55 PM 60.8 °F - 8.6 °F 13% 29.68 in 10.0 mi WSW 19.6 mph 28.8 mph N/A   Clear
4:15 PM 59.0 °F - 8.6 °F 14% 29.67 in 10.0 mi WSW 19.6 mph 26.5 mph N/A   Clear
4:35 PM 55.4 °F - 8.6 °F 15% 29.66 in 10.0 mi West 21.9 mph 31.1 mph N/A   Clear
4:55 PM 55.4 °F - 8.6 °F 15% 29.68 in 10.0 mi West 16.1 mph 23.0 mph N/A   Clear
5:15 PM 51.8 °F - 10.4 °F 19% 29.68 in 10.0 mi WSW 9.2 mph - N/A   Clear
5:35 PM 53.6 °F - 8.6 °F 16% 29.68 in 10.0 mi West 20.7 mph 27.6 mph N/A   Clear
5:55 PM 53.6 °F - 8.6 °F 16% 29.68 in 10.0 mi West 19.6 mph 28.8 mph N/A   Clear
6:15 PM 53.6 °F - 8.6 °F 16% 29.68 in 10.0 mi West 20.7 mph 27.6 mph N/A   Clear
6:35 PM 53.6 °F - 8.6 °F 16% 29.68 in 10.0 mi West 20.7 mph 32.2 mph N/A   Clear
6:55 PM 53.6 °F - 6.8 °F 15% 29.69 in 10.0 mi West 18.4 mph 27.6 mph N/A   Clear
7:15 PM 51.8 °F - 8.6 °F 18% 29.69 in 10.0 mi West 16.1 mph - N/A   Clear
7:35 PM 50.0 °F - 8.6 °F 19% 29.70 in 10.0 mi West 10.4 mph 13.8 mph N/A   Clear
7:55 PM 44.6 °F 38.8 °F 10.4 °F 25% 29.70 in 10.0 mi West 11.5 mph - N/A   Clear
8:15 PM 44.6 °F 37.8 °F 10.4 °F 25% 29.69 in 10.0 mi West 15.0 mph - N/A   Clear
8:35 PM 46.4 °F 41.5 °F 10.4 °F 23% 29.70 in 10.0 mi West 10.4 mph - N/A   Clear
8:55 PM 46.4 °F 41.5 °F 8.6 °F 22% 29.70 in 10.0 mi WNW 10.4 mph - N/A   Clear
9:15 PM 42.8 °F 37.5 °F 10.4 °F 27% 29.70 in 10.0 mi WNW 9.2 mph - N/A   Clear
9:35 PM 42.8 °F 36.6 °F 10.4 °F 27% 29.69 in 10.0 mi West 11.5 mph - N/A   Clear
9:55 PM 41.0 °F 33.9 °F 12.2 °F 31% 29.69 in 10.0 mi West 12.7 mph - N/A   Clear
10:15 PM 42.8 °F 36.2 °F 12.2 °F 29% 29.69 in 10.0 mi WNW 12.7 mph - N/A   Clear
10:35 PM 42.8 °F 36.6 °F 12.2 °F 29% 29.69 in 10.0 mi West 11.5 mph - N/A   Clear
10:55 PM 42.8 °F 35.8 °F 12.2 °F 29% 29.69 in 10.0 mi WNW 13.8 mph - N/A   Clear
11:15 PM 42.8 °F 36.2 °F 12.2 °F 29% 29.68 in 10.0 mi West 12.7 mph - N/A   Clear
11:35 PM 41.0 °F 33.9 °F 14.0 °F 33% 29.68 in 10.0 mi WNW 12.7 mph - N/A   Clear
11:55 PM 41.0 °F 34.3 °F 14.0 °F 33% 29.68 in 10.0 mi WNW 11.5 mph - N/A   Clear